Showing default

METEOR 2-21, 22782

Orbit data source: Space-Track

METEOR 2-21, 22782 is a Commonwealth of Independent States-origin payload satellite in LEO that was launched on Tue, 31 Aug 1993 UTC via a TSIKLON-3 launch vehicle from the Plesetsk Missile And Space Complex (PKMTR). Payload-class satellites include a variety of spacecraft equipped with specific instruments for various scientific and technological missions. These include communications satellites like Starlink; space stations such as the ISS; scientific satellites like the Hubble; Earth observation satellites from companies like Planet Labs, Umbra, and HawkEye 360; GPS; miniature CubeSats for education and research; and military/defense satellites.

Loading next visibility...
Identifier
22782, 1993-055A
Orbit
LEO
Country
Flag of CISCIS
Related business
Manufacturer
VNIIEM
Mission
Civil Cal/Sci
Bus & Motor
METEOR-2, Unknown motor
Mass
~1,500 kg wet, ~1,500 kg dry
Launch date (UTC)
1993-08-31 (32 years ago)
Launch vehicle
TSIKLON-3
Launch site
Plesetsk Missile And Space Complex (PKMTR)
Object type
Payload
Rocket body
Debris
Shape & HBR
Cyl + 2 Pan, 2.3 m
Radar Cross Section
5.718 m², Large (>1 m²)

Expand to show TLE details & history
Last TLE update: 11 hours ago

TLE from 11 hours ago
0 METEOR 2-21
1 22782U 93055A   25307.71768140  .00000048  00000-0  29147-4 0  9993
2 22782  82.5459 113.7634 0023516 119.8186 250.9266 13.84008763624868
Epoch: 2025-11-03T17:13Z
TLE epoch observation values (Epoch: 2025-11-03T17:13:27.672Z)
Latitude
10.34887°
Longitude
173.54499°
Altitude
957.526 km
Speed
7.371 km/s
True Right ascension
07h 40m 30s
True Declination
10° 17' 24"
Sunlit
Object was in daylight at epoch
Visualization orbit readout
Latitude
Unknown
Longitude
Unknown
Altitude
Unknown
Speed
Unknown
Apparent Right ascension
Unknown
Apparent Declination
Unknown
Sunlit
N/A
Visualization observer readout
Local Sidereal Time
00:03:59
Azimuth
Unknown
Elevation
Unknown
Doppler factor
Unknown
Orbital elements
Apogee altitude
964.08 km
Perigee altitude
929.629 km
Semi-major axis
7,324.991 km
Eccentricity
0.00235
Inclination
82.5459°
RAAN
113.7634°
Arg. of periapsis
119.8186°
True anomaly
250.67217°
Mean anomaly
250.9266°
Eccentric anomaly
250.79936°
Mean motion
3.46204 °/min
Orbital period
103.98 mins
BSTAR
0.000029147
Loading maneuver chart data...
Computing Atmospheric mass density...
Loading historical data...
Loading historical data...
Loading historical data...
Loading historical data...
Loading historical data...
Loading historical data...
Loading historical data...
Other satellites on launch #55 in the year 1993 (1993-08-31 UTC)

Documentation

Showing up to 5 results
|